Alma, MI

4:36 AM EDT on July 19, 2019 (GMT -0400)
Gratiot Community

Weather History for KAMN - May, 2019

Change the Weather History Date:

Friday, May 10, 2019

  Actual Average Record
Temperature  
Mean Temperature 50 °F -  
Max Temperature 58 °F 68 °F 85 °F (1979)
Min Temperature 41 °F 42 °F 23 °F (1966)
Degree Days  
Heating Degree Days 16    
Moisture  
Dew Point 38 °F    
Average Humidity 63    
Maximum Humidity 88    
Minimum Humidity 38    
Precipitation  
Precipitation 0.00 in - - ()
Sea Level Pressure  
Sea Level Pressure 30.01 in    
Wind  
Wind Speed 9 mph (WNW)    
Max Wind Speed 18 mph    
Max Gust Speed 25 mph    
Visibility 10 miles    
Events      
Averages and records for this station are not official NWS values.
T = Trace of Precipitation, MM = Missing Value Source: NWS Daily Summary

Daily Weather History Graph

Daily Weather History Graph

Search for Another Location

Airport or City:

Astronomy

May. 10, 2019 Rise Set
Actual Time 6:20 AM EDT 8:50 PM EDT
Civil Twilight 5:48 AM EDT 9:22 PM EDT
Nautical Twilight 5:08 AM EDT 10:03 PM EDT
Astronomical Twilight 4:22 AM EDT 10:48 PM EDT
Moon 11:17 AM EDT (5/10) 1:45 AM EDT (5/10)
Length of Visible Light 15h 34m
Length of Day
14h 30m
Waxing Crescent, 35% of the Moon is Illuminated
May 10
Waxing Crescent
May 11
First Quarter
May 18
Full
May 26
Last Quarter
Jun 3
New

Hourly Weather History & Observations

Time (EDT) Temp. Windchill Dew Point Humidity Pressure Visibility Wind Dir Wind Speed Gust Speed Precip Events Conditions
12:15 AM 53.6 °F - 46.8 °F 78% 29.83 in 10.0 mi WSW 6.9 mph - N/A   Overcast
12:16 AM 53.6 °F - 46.8 °F 78% 29.83 in 10.0 mi WSW 5.8 mph - N/A   Overcast
12:35 AM 53.6 °F - 47.3 °F 79% 29.83 in 10.0 mi West 5.8 mph - N/A   Overcast
12:36 AM 53.6 °F - 47.3 °F 79% 29.83 in 10.0 mi West 8.1 mph - N/A   Overcast
12:55 AM 53.2 °F - 46.6 °F 78% 29.85 in 10.0 mi West 5.8 mph - N/A   Overcast
12:56 AM 53.2 °F - 46.6 °F 78% 29.85 in 10.0 mi West 4.6 mph - N/A   Overcast
1:15 AM 52.9 °F - 46.6 °F 79% 29.85 in 10.0 mi West 8.1 mph - N/A   Overcast
1:16 AM 52.7 °F - 46.4 °F 79% 29.85 in 10.0 mi West 8.1 mph - N/A   Overcast
1:35 AM 52.7 °F - 45.9 °F 78% 29.86 in 10.0 mi WSW 8.1 mph - N/A   Overcast
1:55 AM 52.2 °F - 45.7 °F 79% 29.86 in 10.0 mi WSW 6.9 mph - N/A   Overcast
2:15 AM 52.0 °F - 45.5 °F 79% 29.86 in 10.0 mi WSW 8.1 mph - N/A   Overcast
2:35 AM 51.8 °F - 45.5 °F 79% 29.86 in 10.0 mi WSW 6.9 mph - N/A   Overcast
2:55 AM 51.4 °F - 45.3 °F 80% 29.85 in 10.0 mi WSW 6.9 mph - N/A   Overcast
2:56 AM 51.4 °F - 45.3 °F 80% 29.85 in 10.0 mi WSW 5.8 mph - N/A   Overcast
3:15 AM 51.1 °F - 45.5 °F 81% 29.86 in 10.0 mi WSW 8.1 mph - N/A   Overcast
3:16 AM 51.1 °F - 45.5 °F 81% 29.86 in 10.0 mi WSW 8.1 mph - N/A   Overcast
3:35 AM 50.9 °F - 45.5 °F 82% 29.86 in 10.0 mi WSW 5.8 mph - N/A   Overcast
3:36 AM 50.9 °F - 45.5 °F 82% 29.85 in 10.0 mi WSW 5.8 mph - N/A   Overcast
3:55 AM 50.9 °F - 45.5 °F 82% 29.86 in 10.0 mi WNW 6.9 mph - N/A   Overcast
3:56 AM 50.9 °F - 45.5 °F 82% 29.86 in 10.0 mi West 5.8 mph - N/A   Overcast
4:15 AM 49.5 °F - 45.5 °F 86% 29.86 in 10.0 mi West 8.1 mph - N/A   Light Drizzle
4:35 AM 48.9 °F - 45.0 °F 86% 29.87 in 10.0 mi WNW 9.2 mph - N/A   Overcast
4:55 AM 48.6 °F - 44.6 °F 86% 29.88 in 10.0 mi West 10.4 mph - N/A   Overcast
5:15 AM 48.4 °F - 44.1 °F 85% 29.88 in 10.0 mi WNW 9.2 mph - N/A   Overcast
5:35 AM 48.2 °F - 43.7 °F 84% 29.89 in 10.0 mi West 8.1 mph - N/A   Overcast
5:55 AM 47.5 °F - 43.0 °F 84% 29.89 in 10.0 mi NW 10.4 mph - N/A   Overcast
5:56 AM 47.3 °F - 43.0 °F 85% 29.89 in 10.0 mi NW 10.4 mph - N/A   Overcast
6:15 AM 45.9 °F 40.8 °F 42.1 °F 87% 29.90 in 10.0 mi WNW 10.4 mph - N/A   Overcast
6:35 AM 45.3 °F 39.3 °F 41.7 °F 87% 29.91 in 10.0 mi WNW 12.7 mph 18.4 mph N/A   Overcast
6:36 AM 45.1 °F 39.9 °F 41.5 °F 87% 29.91 in 10.0 mi WNW 10.4 mph 18.4 mph N/A   Overcast
6:55 AM 45.0 °F 40.1 °F 41.4 °F 87% 29.91 in 10.0 mi WNW 9.2 mph - N/A   Overcast
6:56 AM 45.0 °F 39.7 °F 41.4 °F 87% 29.91 in 10.0 mi WNW 10.4 mph - N/A   Overcast
7:15 AM 44.2 °F 38.0 °F 40.8 °F 88% 29.93 in 10.0 mi West 12.7 mph - N/A   Overcast
7:16 AM 44.1 °F 37.7 °F 40.6 °F 88% 29.93 in 10.0 mi West 12.7 mph - N/A   Overcast
7:35 AM 43.9 °F 37.9 °F 40.1 °F 87% 29.95 in 10.0 mi West 11.5 mph - N/A   Overcast
7:36 AM 43.9 °F 37.9 °F 40.1 °F 87% 29.95 in 10.0 mi West 11.5 mph - N/A   Overcast
7:55 AM 43.7 °F 37.7 °F 39.0 °F 84% 29.96 in 10.0 mi West 11.5 mph 16.1 mph N/A   Overcast
8:15 AM 43.9 °F 37.9 °F 37.8 °F 79% 29.97 in 10.0 mi West 11.5 mph - N/A   Overcast
8:35 AM 44.2 °F 37.3 °F 37.6 °F 77% 29.97 in 10.0 mi WNW 15.0 mph 18.4 mph N/A   Overcast
8:55 AM 44.4 °F 37.5 °F 36.7 °F 74% 30.01 in 10.0 mi West 15.0 mph - N/A   Overcast
9:15 AM 44.6 °F 38.4 °F 37.2 °F 75% 29.99 in 10.0 mi West 12.7 mph - N/A   Overcast
9:35 AM 44.6 °F 38.1 °F 36.3 °F 73% 29.99 in 10.0 mi WNW 13.8 mph 21.9 mph N/A   Overcast
9:55 AM 44.8 °F 38.3 °F 36.0 °F 71% 30.00 in 10.0 mi WNW 13.8 mph 21.9 mph N/A   Overcast
10:15 AM 47.8 °F - 36.0 °F 63% 30.01 in 10.0 mi West 16.1 mph 20.7 mph N/A   Overcast
10:35 AM 46.6 °F - 35.8 °F 66% 30.02 in 10.0 mi West 15.0 mph 24.2 mph N/A   Overcast
10:55 AM 46.9 °F - 35.4 °F 64% 30.02 in 10.0 mi WNW 15.0 mph 20.7 mph N/A   Overcast
10:56 AM 46.9 °F - 35.4 °F 64% 30.02 in 10.0 mi West 15.0 mph 20.7 mph N/A   Overcast
11:15 AM 47.7 °F - 35.2 °F 62% 30.02 in 10.0 mi WNW 15.0 mph 21.9 mph N/A   Overcast
11:35 AM 49.3 °F - 35.1 °F 58% 30.04 in 10.0 mi West 15.0 mph 24.2 mph N/A   Overcast
11:55 AM 50.4 °F - 34.3 °F 54% 30.04 in 10.0 mi West 15.0 mph 25.3 mph N/A   Overcast
12:15 PM 50.4 °F - 34.2 °F 54% 30.05 in 10.0 mi West 16.1 mph 21.9 mph N/A   Overcast
12:35 PM 52.3 °F - 33.8 °F 49% 30.07 in 10.0 mi WNW 16.1 mph 23.0 mph N/A   Mostly Cloudy
12:36 PM 52.3 °F - 33.8 °F 49% 30.07 in 10.0 mi NW 18.4 mph 23.0 mph N/A   Mostly Cloudy
12:56 PM 52.7 °F - 34.9 °F 51% 30.06 in 10.0 mi West 13.8 mph 19.6 mph N/A   Mostly Cloudy
1:15 PM 52.7 °F - 34.5 °F 50% 30.05 in 10.0 mi WNW 13.8 mph 18.4 mph N/A   Mostly Cloudy
1:16 PM 52.9 °F - 34.2 °F 49% 30.05 in 10.0 mi WNW 11.5 mph 18.4 mph N/A   Mostly Cloudy
1:35 PM 52.5 °F - 33.4 °F 48% 30.07 in 10.0 mi WNW 13.8 mph 20.7 mph N/A   Mostly Cloudy
1:36 PM 52.5 °F - 33.6 °F 49% 30.06 in 10.0 mi WNW 9.2 mph 20.7 mph N/A   Mostly Cloudy
1:55 PM 53.1 °F - 34.3 °F 49% 30.07 in 10.0 mi WNW 11.5 mph 19.6 mph N/A   Overcast
2:15 PM 53.4 °F - 34.2 °F 48% 30.07 in 10.0 mi WNW 11.5 mph - N/A   Overcast
2:35 PM 54.5 °F - 34.3 °F 47% 30.06 in 10.0 mi West 9.2 mph 17.3 mph N/A   Overcast
2:55 PM 54.9 °F - 34.7 °F 47% 30.07 in 10.0 mi West 12.7 mph - N/A   Mostly Cloudy
2:56 PM 54.9 °F - 34.7 °F 47% 30.06 in 10.0 mi West 10.4 mph - N/A   Mostly Cloudy
3:15 PM 55.2 °F - 35.1 °F 47% 30.07 in 10.0 mi WNW 10.4 mph 18.4 mph N/A   Scattered Clouds
3:16 PM 55.2 °F - 35.1 °F 47% 30.07 in 10.0 mi WNW 10.4 mph 18.4 mph N/A   Scattered Clouds
3:35 PM 55.6 °F - 34.5 °F 45% 30.07 in 10.0 mi NNW 6.9 mph - N/A   Scattered Clouds
3:36 PM 55.8 °F - 35.1 °F 46% 30.07 in 10.0 mi NNW 8.1 mph - N/A   Mostly Cloudy
3:55 PM 56.3 °F - 34.3 °F 44% 30.07 in 10.0 mi WNW 6.9 mph 19.6 mph N/A   Mostly Cloudy
3:56 PM 55.9 °F - 33.8 °F 43% 30.07 in 10.0 mi NW 8.1 mph 19.6 mph N/A   Mostly Cloudy
4:15 PM 55.6 °F - 34.5 °F 45% 30.07 in 10.0 mi NW 5.8 mph - N/A   Mostly Cloudy
4:16 PM 55.8 °F - 34.3 °F 44% 30.07 in 10.0 mi WNW 9.2 mph - N/A   Mostly Cloudy
4:35 PM 57.2 °F - 34.2 °F 42% 30.07 in 10.0 mi WSW 5.8 mph - N/A   Mostly Cloudy
4:55 PM 56.8 °F - 32.2 °F 39% 30.08 in 10.0 mi WNW 6.9 mph - N/A   Scattered Clouds
5:15 PM 57.0 °F - 32.7 °F 40% 30.08 in 10.0 mi Calm Calm - N/A   Mostly Cloudy
5:35 PM 57.9 °F - 33.6 °F 40% 30.09 in 10.0 mi WNW 5.8 mph - N/A   Scattered Clouds
5:55 PM 56.3 °F - 32.9 °F 41% 30.09 in 10.0 mi Calm Calm - N/A   Scattered Clouds
6:15 PM 58.1 °F - 33.4 °F 39% 30.09 in 10.0 mi WNW 6.9 mph - N/A   Scattered Clouds
6:16 PM 58.3 °F - 33.3 °F 39% 30.09 in 10.0 mi WNW 6.9 mph - N/A   Scattered Clouds
6:35 PM 56.5 °F - 32.9 °F 41% 30.10 in 10.0 mi NW 5.8 mph - N/A   Mostly Cloudy
6:36 PM 56.5 °F - 32.9 °F 41% 30.10 in 10.0 mi NW 6.9 mph - N/A   Mostly Cloudy
6:55 PM 56.8 °F - 32.7 °F 40% 30.10 in 10.0 mi WNW 4.6 mph - N/A   Mostly Cloudy
6:56 PM 57.0 °F - 32.5 °F 40% 30.10 in 10.0 mi West 5.8 mph - N/A   Mostly Cloudy
7:15 PM 57.9 °F - 32.7 °F 39% 30.11 in 10.0 mi West 9.2 mph - N/A   Overcast
7:16 PM 57.9 °F - 32.5 °F 38% 30.11 in 10.0 mi WNW 9.2 mph - N/A   Overcast
7:35 PM 57.2 °F - 32.0 °F 38% 30.11 in 10.0 mi WNW 9.2 mph - N/A   Overcast
7:55 PM 55.9 °F - 32.0 °F 40% 30.12 in 10.0 mi West 10.4 mph - N/A   Mostly Cloudy
8:15 PM 55.0 °F - 32.7 °F 43% 30.13 in 10.0 mi NNW 9.2 mph - N/A   Overcast
8:35 PM 53.6 °F - 32.0 °F 44% 30.13 in 10.0 mi NNW 5.8 mph - N/A   Overcast
8:55 PM 51.8 °F - 32.0 °F 47% 30.14 in 10.0 mi NNW 9.2 mph - N/A   Mostly Cloudy
9:15 PM 50.9 °F - 31.8 °F 48% 30.15 in 10.0 mi NNW 6.9 mph - N/A   Scattered Clouds
9:35 PM 49.3 °F - 32.0 °F 51% 30.16 in 10.0 mi NNW 8.1 mph - N/A   Clear
9:36 PM 49.1 °F - 32.0 °F 52% 30.16 in 10.0 mi NNW 8.1 mph - N/A   Clear
9:55 PM 48.2 °F - 32.0 °F 54% 30.16 in 10.0 mi NNW 5.8 mph - N/A   Clear
9:56 PM 48.2 °F - 32.0 °F 54% 30.16 in 10.0 mi NNW 5.8 mph - N/A   Clear
10:15 PM 47.7 °F - 32.0 °F 55% 30.16 in 10.0 mi NNW 4.6 mph - N/A   Clear
10:16 PM 47.5 °F - 32.0 °F 55% 30.16 in 10.0 mi NNW 5.8 mph - N/A   Clear
10:35 PM 46.4 °F 44.3 °F 32.0 °F 57% 30.16 in 10.0 mi NNW 4.6 mph - N/A   Clear
10:36 PM 46.4 °F 44.3 °F 32.0 °F 57% 30.16 in 10.0 mi NNW 4.6 mph - N/A   Clear
10:55 PM 46.2 °F - 32.0 °F 58% 30.16 in 10.0 mi Calm Calm - N/A   Clear
11:15 PM 46.2 °F - 32.0 °F 58% 30.16 in 10.0 mi Calm Calm - N/A   Clear
11:35 PM 41.7 °F - 33.6 °F 73% 30.17 in 10.0 mi Calm Calm - N/A   Clear
11:55 PM 41.2 °F - 35.4 °F 80% 30.17 in 10.0 mi Calm Calm - N/A   Clear